Погода в Хатукае

Россия / Республика Адыгея     45°11′18″N   39°39′48″E
темп.,
°C
ветер,
м/с
пор.,
м/с
влажн.,
%
обл.,
%
осадки,
мм/ч
давл.,
гПа
погр.,
м
6 марта, сб
сб600:00+4ююз356718 0.0 1017106
03:00+4зюз366549 0.0 1017108
06:00+5юз5165399 0.0 1016372
09:00+9юз8185182 0.0 1016857
12:00+13юз101547100 0.0 1014975
15:00+13юз101654100 0.0 10121407
18:00+10юз81474100 0.0 1013778
21:00+4зсз91294100 3.6 1016756
7 марта, вс
вс700:00+1ссз71192100 3.0 1020895
03:00−1сз487681 3.0 1024534
06:00−2сз26750 0.0 1026451
09:00−1сз33540 0.0 1027651
12:00+2сз34420 0.0 10251420
15:00+4з34420 0.0 10231641
18:00+1з356158 0.0 1022125
21:00−1з366429 0.0 1023149
8 марта, пн
пн800:00−1юз38670 0.0 1022260
03:00−1юз410640 0.0 1021299
06:000юз511630 0.0 1020350
09:00+3зюз711520 0.0 10191145
12:00+5зюз7105340 0.0 10181483
15:00+6зюз795557 0.0 10161616
18:00+3зюз5106995 0.1 1016438
21:00+1юз5118354 0.1 1017348
9 марта, вт
вт900:00+1юз6128527 0.0 1017430
03:00+1юз6139157 0.0 1016556
06:00+2зюз61196100 0.3 1016598
09:00+3зюз6991100 1.1 1017604
12:00+5зюз6977100 0.9 1018944
15:00+5зсз81160100 1.9 10181468
18:00+2сз595882 0.0 1020534
21:00−1сз236457 0.0 102367
10 марта, ср
ср1000:00−1зюз23710 0.0 102353
03:00−1юз23736 0.0 102369
06:00−1зюз127380 0.0 102328
09:00+1ссв016558 0.0 1024435
12:00+4вюв1155100 0.0 10221181
15:00+4св215297 0.0 10201273
18:00+2всв3567100 0.0 1019188
21:000всв3774100 0.0 1019199